Wind_Speed
41 44 45 47 44 44 64 58 44 32 52 60 66 56 49 62 47 40 39 35 33 32 31 31 26 23 19 16 32 36 28 13 16 18 13 21 27 26 31 21 14 29 22 29
38 42 42 46 45 49 60 69 45 47 38 64 53 52 59 54 51 49 44 34 39 37 34 20 27 23 22 18 22 24 31 16 14 8 11 18 27 33 32 33 18 26 16 16
37 41 43 46 48 50 53 61 39 59 56 67 64 52 48 58 55 53 51 42 39 39 36 31 25 20 26 24 19 19 17 15 22 22 12 16 30 30 34 32 33 35 43 34
37 41 42 44 49 50 51 50 32 33 57 58 62 56 51 50 48 50 52 37 43 44 33 41 21 25 29 27 27 26 26 20 25 25 21 16 16 22 28 36 44 35 47 37
37 41 43 44 51 51 53 46 44 61 52 64 62 60 52 49 53 60 56 46 36 38 32 39 36 34 30 35 32 31 30 21 27 29 26 32 23 24 25 34 37 39 42 40
37 39 41 44 52 54 56 60 43 31 63 45 50 67 49 49 53 50 59 47 37 43 43 23 24 30 31 27 30 32 35 32 20 25 23 26 20 48 34 34 38 37 42 49
35 37 38 44 54 55 55 55 61 20 34 47 48 52 60 53 47 47 42 45 40 40 35 35 24 22 23 29 27 28 34 40 26 21 22 10 33 22 28 36 39 38 39 44
33 36 38 43 52 54 53 42 40 49 15 37 48 48 55 45 33 46 43 39 43 36 36 32 28 28 35 37 34 37 40 39 17 12 15 20 21 25 30 32 38 33 38 39
31 34 38 43 47 48 46 48 34 54 20 20 39 54 52 49 58 37 40 43 48 45 38 35 25 18 25 17 20 44 34 30 29 17 11 12 23 24 34 30 31 33 32 38
28 30 34 39 43 42 41 44 38 41 30 28 38 48 53 49 50 57 45 36 34 38 41 35 28 19 18 15 17 21 34 37 39 31 16 19 24 31 23 18 26 17 20 24
29 30 31 35 35 35 40 42 39 41 7 24 36 40 49 48 58 45 42 38 40 52 37 37 21 14 18 16 21 24 31 24 26 33 23 18 33 31 29 28 24 24 20 12
31 31 34 31 31 37 36 38 46 50 27 20 35 38 37 42 50 54 48 39 40 40 38 25 21 16 19 28 20 30 22 29 23 23 23 28 20 25 26 28 23 20 21 20
24 33 33 32 30 34 34 33 35 34 30 18 20 26 28 32 37 38 40 40 40 44 44 37 29 19 28 23 29 21 28 35 26 28 32 26 25 17 19 20 22 21 19 18
34 22 35 34 32 34 30 36 34 29 26 27 23 25 33 30 29 27 28 31 37 30 29 35 28 26 26 21 21 23 21 29 29 26 25 18 22 23 25 22 24 25 21 22
32 28 30 32 32 27 29 28 27 33 35 24 27 24 26 28 29 29 32 34 36 32 32 35 34 38 31 33 30 23 31 28 27 19 20 20 19 18 19 22 25 26 26 26
24 28 27 28 26 26 33 44 40 42 42 30 32 25 26 23 26 27 28 34 35 37 40 34 30 29 24 20 14 15 17 17 18 20 17 19 20 21 22 24 25 24 23 24
17 14 16 17 16 14 14 22 25 32 33 34 28 21 26 29 30 31 28 28 27 26 23 19 19 22 16 12 10 17 17 17 18 20 21 21 20 21 22 24 26 29 30 31
15 15 14 14 12 14 17 24 21 22 31 28 12 27 28 28 27 25 21 18 16 13 11 13 14 14 13 8 15 14 14 15 16 17 19 22 23 24 24 24 25 26 26 27
11 12 12 15 13 18 21 18 16 10 7 7 21 25 30 27 25 25 20 16 13 12 13 14 15 14 8 11 12 12 12 13 14 16 16 17 17 18 21 23 23 24 22 21
10 10 12 12 12 14 15 14 13 11 14 12 27 28 25 24 22 18 14 12 10 7 9 9 9 11 11 11 9 9 10 9 10 12 14 16 17 18 16 15 15 14 15 17
11 12 14 15 12 11 6 5 4 5 7 15 20 17 26 22 20 18 9 8 7 5 6 8 5 7 15 15 14 14 13 12 11 11 12 14 15 14 11 10 10 12 14 15
11 14 13 11 8 4 4 5 5 4 5 13 16 17 20 19 16 8 7 6 7 3 9 8 4 9 11 12 12 11 11 12 11 10 10 9 8 9 7 8 8 8 3 5
9 7 5 4 4 4 4 3 4 5 13 17 18 19 18 17 9 8 5 5 5 7 8 4 5 13 12 10 10 10 10 11 11 8 8 8 7 7 8 9 9 9 5 4
6 6 6 4 4 5 6 11 11 15 19 19 17 18 14 14 9 6 5 7 9 5 4 5 11 15 12 10 11 10 9 9 9 8 10 10 11 10 10 11 11 11 9 8
4 5 5 8 14 12 13 13 14 20 22 21 17 11 15 12 6 5 6 8 5 9 9 9 13 14 12 10 11 10 8 7 7 8 8 8 10 10 11 11 13 14 13 12
5 5 12 12 11 11 13 13 13 16 18 14 10 8 7 6 5 7 6 7 6 6 9 11 14 13 13 12 11 10 8 7 7 7 7 7 8 9 11 12 14 14 14 14
4 8 9 9 9 8 9 10 11 12 13 9 5 4 5 5 4 5 6 6 6 6 9 11 15 14 14 11 9 8 8 8 7 7 7 7 7 8 9 10 12 13 14 12
Wind_Direction
217 216 216 213 211 208 207 206 214 206 209 203 208 201 201 211 208 194 200 199 206 193 188 192 191 205 197 199 203 195 197 206 209 212 214 210 221 215 207 205 203 232 257 266
217 213 213 210 210 204 205 205 218 202 208 197 207 205 209 214 196 189 192 194 202 198 189 188 201 200 193 185 191 186 189 201 186 202 234 220 217 218 221 225 236 231 217 245
216 214 214 210 208 203 209 213 222 210 202 208 202 203 210 203 210 212 207 204 196 194 192 200 205 199 201 204 192 188 199 204 204 213 227 210 212 218 220 221 226 235 235 246
215 212 212 210 205 204 206 215 217 205 218 200 201 201 202 194 189 198 198 194 196 194 193 199 200 197 205 203 201 205 207 221 224 231 232 213 222 228 222 219 231 227 246 243
215 212 209 208 202 204 207 208 216 215 213 222 196 201 209 188 187 187 194 194 179 192 201 213 212 208 207 209 205 202 215 223 230 236 231 234 240 241 233 233 238 240 250 253
212 209 208 206 199 202 207 215 196 208 221 206 203 206 198 204 201 202 201 215 206 210 219 212 213 223 224 218 216 214 214 216 217 235 232 242 247 242 234 239 241 240 243 253
207 205 205 200 199 206 205 218 218 203 224 220 221 215 204 209 202 208 210 213 209 221 205 210 209 213 217 216 218 227 226 218 219 233 223 217 246 252 243 242 247 245 250 254
202 203 200 199 201 205 206 212 218 215 204 211 221 207 202 196 200 206 211 207 208 205 205 211 222 229 233 225 230 235 224 225 213 212 202 259 262 246 246 241 254 252 248 255
202 203 200 199 204 207 205 210 219 219 244 238 209 202 210 199 204 206 171 197 206 205 197 197 199 203 219 209 203 219 207 209 224 225 229 231 264 255 259 264 262 267 251 248
192 194 194 197 204 201 204 207 216 219 235 242 192 207 196 191 199 215 220 206 199 199 206 205 206 202 186 184 197 204 214 224 216 219 229 246 247 252 256 234 260 259 259 263
189 187 185 189 192 194 191 202 206 198 190 205 191 189 195 195 203 193 187 187 197 200 206 200 198 215 213 209 212 217 212 204 217 227 236 239 243 247 240 250 251 259 255 250
186 183 188 192 193 196 193 203 208 217 212 184 188 206 207 204 211 213 222 223 221 223 218 215 215 197 200 218 228 230 219 216 223 217 235 240 236 241 244 252 243 254 248 252
187 190 187 180 184 191 198 198 201 204 219 210 202 197 184 199 208 215 223 223 223 218 220 215 216 216 225 223 223 225 230 230 225 235 234 228 226 209 222 234 248 243 240 244
72 141 179 173 183 194 190 190 201 209 206 212 206 207 209 211 214 218 229 226 224 216 221 213 215 219 217 214 225 224 223 231 221 215 221 217 223 241 249 236 230 235 239 244
68 71 97 167 175 185 190 198 216 210 196 187 182 201 215 216 220 225 231 227 230 228 230 225 222 229 232 233 219 211 218 216 213 231 228 226 228 222 224 230 232 244 260 267
44 66 71 89 121 166 191 191 196 200 205 177 143 153 155 195 201 203 215 223 224 225 222 216 208 203 190 186 195 203 203 205 209 218 221 232 244 248 248 247 252 256 251 246
79 75 57 58 70 98 124 147 147 177 189 151 126 128 134 137 146 147 152 158 163 174 174 181 177 174 182 176 176 195 203 218 233 238 241 244 248 252 255 257 260 262 264 268
86 87 93 82 85 91 107 120 130 139 138 130 114 132 135 138 137 136 140 137 141 143 151 159 164 173 185 199 195 193 204 216 229 243 252 256 258 260 264 267 268 270 272 271
106 101 101 96 114 112 114 109 111 108 105 102 142 142 145 148 149 144 144 148 156 159 164 169 176 179 194 199 192 210 227 241 249 254 258 263 267 269 271 272 271 271 268 262
113 123 133 121 126 122 123 128 123 103 99 117 156 152 148 152 148 152 154 164 160 165 180 186 204 205 216 218 231 232 234 246 249 249 255 263 271 273 268 265 265 256 249 258
119 117 122 129 135 136 126 115 103 103 106 129 149 148 154 161 169 165 152 145 148 154 191 192 196 223 230 227 225 234 237 235 234 241 256 266 265 257 253 253 236 246 262 269
115 111 112 123 124 107 96 106 105 115 134 145 146 154 163 160 162 156 142 140 160 162 176 177 197 210 205 200 207 217 224 228 240 260 259 268 227 203 232 233 216 227 240 232
106 89 73 62 79 92 112 98 115 136 154 159 158 158 154 153 141 142 138 148 167 155 170 195 204 194 189 201 211 210 216 226 239 248 234 213 202 230 206 198 205 199 220 235
81 59 45 56 53 60 101 126 144 146 148 149 152 154 154 148 138 139 138 155 156 160 192 209 195 184 193 205 206 210 214 222 227 234 223 220 213 215 220 226 226 233 243 270
74 52 50 83 104 101 106 110 118 141 143 144 148 146 159 152 144 159 150 163 180 198 198 192 187 184 194 199 193 192 197 206 215 222 221 222 227 231 236 234 232 236 245 265
67 77 122 124 114 115 111 122 116 131 144 152 147 143 155 172 173 181 184 176 194 201 207 200 196 198 198 188 188 191 202 217 224 228 231 229 230 232 235 236 238 243 252 262
107 126 122 129 143 144 136 141 146 151 152 147 134 145 172 164 192 201 197 198 209 202 183 179 188 192 189 189 195 200 205 207 207 209 213 218 225 230 235 240 238 242 246 253
Height
2848 2857 2865 2876 2886 2897 2908 2916 2921 2930 2940 2951 2952 2950 2960 2973 2981 2993 3001 3007 3011 3016 3022 3030 3037 3040 3046 3047 3052 3058 3069 3074 3078 3081 3081 3085 3089 3091 3092 3092 3093 3093 3093 3082
2840 2849 2858 2868 2878 2888 2898 2903 2914 2920 2927 2925 2936 2945 2957 2965 2975 2982 2992 2998 3003 3011 3015 3027 3032 3037 3041 3044 3049 3054 3062 3065 3072 3077 3079 3076 3077 3083 3085 3088 3090 3084 3090 3078
2833 2842 2851 2860 2870 2881 2889 2897 2900 2909 2910 2921 2928 2935 2945 2957 2967 2976 2984 2991 2999 3004 3012 3022 3026 3031 3035 3040 3047 3051 3055 3056 3057 3059 3063 3064 3068 3072 3077 3082 3082 3076 3069 3074
2826 2834 2843 2852 2862 2873 2880 2881 2886 2895 2890 2900 2917 2927 2943 2944 2954 2967 2976 2984 2990 2996 3005 3014 3020 3027 3029 3037 3042 3044 3048 3048 3053 3057 3057 3058 3061 3065 3070 3070 3066 3072 3059 3070
2818 2826 2835 2844 2855 2866 2869 2874 2880 2887 2892 2898 2908 2919 2926 2934 2945 2949 2964 2975 2983 2993 3000 3006 3013 3017 3019 3027 3034 3039 3040 3041 3046 3049 3052 3052 3054 3057 3060 3060 3061 3064 3062 3059
2810 2818 2827 2836 2846 2854 2858 2862 2874 2882 2888 2893 2901 2905 2918 2928 2941 2949 2957 2969 2979 2988 2991 3006 3008 3012 3016 3021 3027 3030 3032 3037 3039 3040 3046 3047 3048 3033 3048 3051 3051 3054 3054 3046
2804 2812 2820 2829 2839 2845 2853 2863 2871 2877 2882 2889 2892 2901 2912 2924 2931 2943 2955 2964 2972 2981 2988 2994 3000 3006 3012 3017 3020 3023 3025 3029 3032 3035 3038 3036 3026 3032 3035 3038 3037 3041 3043 3042
2799 2807 2814 2823 2833 2840 2850 2855 2865 2878 2877 2885 2890 2900 2911 2921 2931 2938 2945 2954 2966 2972 2980 2990 2995 2999 3004 3007 3010 3013 3016 3021 3023 3026 3025 3025 3022 3022 3025 3024 3024 3032 3031 3033
2796 2802 2811 2819 2827 2836 2846 2854 2863 2869 2872 2875 2886 2896 2905 2913 2924 2928 2931 2948 2955 2963 2969 2974 2980 2986 2991 2997 2998 3003 3006 3011 3016 3019 3018 3013 3011 3018 3016 3018 3013 3021 3022 3022
2793 2800 2807 2815 2824 2833 2841 2849 2858 2865 2874 2873 2878 2885 2895 2904 2911 2923 2931 2933 2947 2953 2959 2968 2974 2977 2980 2982 2985 2991 2996 3001 3003 3007 3007 3004 3006 3008 3010 3013 3010 3010 3011 3012
2791 2797 2805 2813 2822 2830 2840 2850 2858 2863 2866 2872 2875 2882 2889 2892 2907 2914 2921 2932 2935 2943 2952 2960 2960 2963 2969 2976 2980 2981 2984 2992 2995 2999 3000 2996 2998 2999 3001 3002 3002 3004 3004 3003
2791 2796 2803 2813 2821 2829 2836 2843 2851 2857 2865 2869 2873 2878 2886 2894 2905 2912 2917 2923 2928 2935 2945 2947 2952 2957 2960 2965 2971 2972 2979 2977 2985 2987 2985 2986 2988 2989 2990 2993 2995 2996 2997 2998
2791 2797 2803 2810 2820 2827 2835 2841 2850 2859 2865 2869 2871 2876 2882 2890 2898 2906 2912 2917 2922 2927 2934 2939 2943 2948 2955 2957 2960 2966 2966 2967 2972 2976 2975 2976 2979 2982 2984 2987 2988 2989 2991 2993
2798 2798 2804 2811 2818 2825 2832 2842 2847 2853 2857 2865 2869 2874 2881 2886 2894 2901 2907 2913 2918 2925 2930 2931 2934 2941 2945 2950 2951 2956 2957 2958 2962 2966 2967 2970 2973 2975 2978 2980 2981 2983 2986 2987
2809 2808 2809 2812 2820 2825 2832 2839 2844 2849 2858 2859 2866 2872 2875 2881 2887 2893 2901 2907 2912 2917 2923 2925 2928 2930 2937 2939 2944 2946 2948 2951 2954 2959 2962 2964 2965 2969 2973 2975 2977 2978 2980 2981
2816 2817 2819 2822 2825 2829 2833 2839 2842 2847 2853 2858 2864 2871 2874 2878 2882 2887 2893 2900 2905 2909 2912 2918 2922 2925 2931 2935 2939 2940 2944 2946 2949 2953 2956 2958 2962 2966 2968 2969 2971 2971 2972 2974
2831 2830 2828 2829 2831 2835 2837 2839 2842 2846 2851 2855 2862 2870 2874 2877 2881 2886 2893 2896 2900 2905 2909 2913 2919 2922 2927 2931 2935 2938 2940 2942 2945 2948 2951 2953 2956 2959 2961 2962 2963 2963 2964 2965
2838 2838 2839 2839 2840 2841 2842 2845 2847 2849 2851 2856 2862 2870 2876 2878 2882 2888 2893 2896 2900 2904 2909 2914 2916 2921 2926 2929 2932 2934 2936 2939 2941 2944 2946 2948 2950 2951 2952 2952 2953 2954 2955 2955
2843 2844 2844 2845 2847 2848 2849 2851 2853 2855 2860 2859 2865 2869 2877 2882 2886 2890 2895 2899 2904 2908 2910 2913 2918 2920 2923 2924 2927 2929 2932 2935 2936 2937 2939 2939 2941 2943 2944 2944 2945 2945 2945 2945
2846 2847 2848 2849 2851 2852 2854 2858 2859 2861 2862 2864 2868 2872 2876 2883 2887 2893 2898 2900 2903 2906 2910 2912 2914 2916 2918 2919 2922 2925 2927 2929 2932 2933 2933 2934 2936 2937 2937 2938 2938 2938 2939 2939
2850 2851 2851 2853 2854 2855 2856 2858 2860 2862 2866 2868 2871 2875 2878 2884 2889 2891 2895 2898 2901 2904 2907 2910 2911 2912 2914 2916 2919 2921 2923 2926 2928 2929 2929 2930 2930 2930 2931 2931 2932 2934 2934 2935
2854 2854 2855 2857 2858 2859 2861 2861 2862 2863 2865 2868 2872 2876 2879 2883 2888 2891 2895 2897 2900 2903 2905 2908 2908 2909 2910 2913 2915 2917 2919 2921 2924 2925 2925 2925 2925 2926 2927 2928 2930 2931 2931 2931
2857 2857 2857 2858 2860 2861 2863 2864 2864 2864 2865 2869 2873 2877 2879 2883 2888 2891 2894 2896 2899 2901 2903 2905 2906 2907 2908 2911 2913 2915 2916 2918 2920 2921 2922 2922 2923 2924 2925 2927 2928 2929 2929 2930
2859 2859 2860 2860 2861 2862 2863 2863 2865 2867 2870 2873 2876 2878 2881 2884 2888 2891 2894 2896 2898 2900 2901 2902 2903 2905 2907 2908 2910 2912 2914 2915 2917 2918 2919 2920 2921 2922 2924 2924 2926 2926 2927 2927
2862 2863 2863 2864 2865 2866 2866 2867 2867 2869 2872 2875 2878 2881 2884 2887 2890 2891 2892 2893 2896 2898 2899 2899 2900 2902 2904 2906 2908 2910 2912 2914 2915 2915 2916 2917 2918 2919 2920 2921 2922 2923 2924 2925
2864 2865 2866 2868 2869 2869 2870 2871 2872 2873 2875 2878 2881 2882 2885 2887 2888 2890 2890 2891 2891 2892 2892 2894 2897 2900 2902 2904 2906 2908 2910 2912 2912 2913 2914 2914 2915 2915 2916 2917 2918 2919 2920 2921
2866 2868 2868 2869 2870 2872 2873 2874 2875 2877 2879 2880 2881 2883 2884 2885 2886 2887 2886 2887 2888 2888 2889 2891 2893 2897 2899 2901 2903 2905 2908 2909 2911 2911 2912 2912 2912 2913 2913 2914 2914 2915 2916 2916